TIANWEN-2

Satellite information

Favourite Embed

Satellite Type and Status

PAYLOADIN ORBIT

Key statistics

Satellite TIANWEN-2 at a glance.

Uptime

199

Days in orbit

Revolutions

≈ 16.0

Per day

Orbit

Asteroid

None

Inclination

28.9

Latest

Satellite identification and parameters

Extended collection of information and parameters for TIANWEN-2.

Object identification

Identified? True

Debris? False

Object name: TIANWEN-2

International designator: 2025-114A

Object number (NORAD): 64197

Object ID (CCSDS): 64197

Country: PEOPLES REPUBLIC OF CHINA (PRC)

Current information (Y/N): Y

Notes: HELIOCENTRIC ORBIT (SUN)

Orbital parameters

Period: 89.913 minutes

Inclination: 28.8798 deg

SMA: 6648.247 km

Apoapsis: 276.76 km

Periapsis: 263.464 km

RAAN: 146.7974 deg

Eccentricy: 0.001

Argument of periapsis: 102.8623 deg

Mean anomaly: 0.5 deg

Mean motion: 16.01555694 rev/day

Mean motion (dot): 0.00002075 rev/day2

B* drag term: 0.0 1/REarth

Two-line elements (TLE)

Creation date: Aug. 14, 2025, 2:27 a.m.

Reference frame: TEME

Reference center: EARTH

Epoch: May 28, 2025, 5:31 p.m. UTC

TLE line 0: 0 TIANWEN-2

TLE line 1: 1 64197U 25114A 25148.73023148 .00002075 -65600-5 00000-0 0 9995

TLE line 2: 2 64197 28.8798 146.7974 0010000 102.8623 0.5000 16.01555694 09

Live tracking on map

Real-time ground track for satellite TIANWEN-2.

In-orbit conjunctions

There are no conjunctions computed for TIANWEN-2, at the moment. Check back to stay up to date, as we update our databases every day.

Go to all conjunctions

Associated space launch

Tianwen-2 is a planned Chinese asteroid sample return and comet orbiter mission due for launch in May 2025. The spacecraft will visit the Near Earth asteroid 469219 Kamoʻoalewa (2016 HO3), collecting samples from its surface using both touch-and-go and anchor-and-drill approaches. It will return the samples back to Earth around 2.5 years after launch, with the main spacecraft proceeding to visit the main-belt comet 311P/PANSTARRS in the mid-2030s.

TIANWEN-2 was lifted into orbit during the mission ‘Long March 3B/E | Tianwen-2’, on board a Long March 3B/E space rocket.

The launch took place on May 28, 2025, 5:31 p.m. from Launch Complex 2 (LC-2).

For more information about the launch, click the button.

Launch to space Long March 3B/E | Tianwen-2
Long March 3B/E | Tianwen-2

Agency: N/A

Status: Launch Successful

Launch date: May 28, 2025, 5:31 p.m. UTC

Rocket: Long March 3B/E

Launch pad: Launch Complex 2 (LC-2)

Location: Xichang Satellite Launch Center, People's Republic of China

...

Latest news about this satellite

News about space launch
China Launches Tianwen-2 Asteroid Sample-Return Mission

China launched the robotic Tianwen-2 spacecraft today to return samples from a Near Earth Asteroid that is in an orbit around the Sun similar to Earth’s. China has brought back […]

News about space launch
China launches Tianwen-2 mission to sample near Earth asteroid

China launched its second planetary exploration mission Wednesday, sending Tianwen-2 to sample a near Earth asteroid and later survey a main belt comet. The post China launches Tianwen-2 mission to sample near Earth asteroid appeared first on SpaceNews.

News about space launch
Launch Roundup: Chinese asteroid mission, Electron, and Falcon 9 set to launch

This week, China will launch a near-Earth asteroid sample return mission amongst several other missions.… The post Launch Roundup: Chinese asteroid mission, Electron, and Falcon 9 set to launch appeared first on NASASpaceFlight.com.


Newsletter sign-up

Weekly statistics, charts and insights to help you stay on top of the space industry.